Alameda, CA

6:51 PM PST on February 22, 2017 (GMT -0800)
Metro Oakland International

Weather History for KOAK - July, 2013

Change the Weather History Date:

Tuesday, July 9, 2013

  Actual Average Record
Temperature  
Mean Temperature 66 °F 63 °F  
Max Temperature 76 °F 71 °F 95 °F (1959)
Min Temperature 56 °F 55 °F 49 °F (1953)
Degree Days  
Heating Degree Days 0 3  
Month to date heating degree days 3 27  
Since 1 June heating degree days 63 130  
Since 1 July heating degree days 3 27  
Cooling Degree Days 1 1  
Month to date cooling degree days 27 9  
Year to date cooling degree days 103 43  
Since 1 June cooling degree days 62 27  
Growing Degree Days 15 (Base 50)    
Moisture  
Dew Point 58 °F    
Average Humidity 77    
Maximum Humidity 100    
Minimum Humidity 54    
Precipitation  
Precipitation 0.00 in 0.00 in 0.01 in (1974)
Month to date precipitation 0.00 0.01  
Year to date precipitation 2.82 13.23  
Since 1 July precipitation 0.00  
Sea Level Pressure  
Sea Level Pressure 30.00 in    
Wind  
Wind Speed 9 mph (NW)    
Max Wind Speed 21 mph    
Max Gust Speed 25 mph    
Visibility 9 miles    
Events      
T = Trace of Precipitation, MM = Missing Value Source: NWS Daily Summary

Daily Weather History Graph

Daily Weather History Graph

Search for Another Location

Airport or City:

Trip Planner

Search our weather history database for the weather conditions in past years. The results will help you decide how hot, cold, wet, or windy it might be!

Date:

Astronomy

Jul. 09, 2013 Rise Set
Actual Time 5:55 AM PDT 8:32 PM PDT
Civil Twilight 5:24 AM PDT 9:03 PM PDT
Nautical Twilight 4:46 AM PDT 9:41 PM PDT
Astronomical Twilight 4:03 AM PDT 10:24 PM PDT
Moon 7:22 AM PDT (7/9) 9:16 PM PDT (7/9)
Length of Visible Light 15h 38m
Length of Day
14h 37m
New Moon, 2% of the Moon is Illuminated
Jul 9
New Moon
Jul 15
First Quarter
Jul 22
Full
Jul 29
Last Quarter
Aug 6
New

Hourly Weather History & Observations

Time (PDT) Temp. Dew Point Humidity Pressure Visibility Wind Dir Wind Speed Gust Speed Precip Events Conditions
12:13 AM 57.2 °F 57.2 °F 100% 29.99 in 10.0 mi Calm Calm - N/A   Partly Cloudy
12:53 AM 57.0 °F 57.0 °F 100% 29.99 in 10.0 mi North 4.6 mph - N/A   Partly Cloudy
1:43 AM 55.4 °F 55.4 °F 100% 29.99 in 10.0 mi North 4.6 mph - N/A   Mostly Cloudy
1:53 AM 57.0 °F 57.0 °F 100% 29.99 in 10.0 mi North 4.6 mph - N/A   Mostly Cloudy
2:53 AM 57.0 °F 57.0 °F 100% 29.99 in 10.0 mi North 3.5 mph - N/A   Overcast
3:53 AM 57.9 °F 57.9 °F 100% 29.99 in 9.0 mi NNW 3.5 mph - N/A   Overcast
4:53 AM 57.0 °F 55.0 °F 93% 30.01 in 10.0 mi West 6.9 mph - N/A   Overcast
5:53 AM 57.0 °F 54.0 °F 89% 30.01 in 6.0 mi NW 4.6 mph - N/A   Overcast
6:53 AM 57.9 °F 57.9 °F 100% 30.02 in 4.0 mi Variable 3.5 mph - N/A   Overcast
7:53 AM 57.9 °F 57.9 °F 100% 30.04 in 3.0 mi Calm Calm - N/A   Overcast
8:53 AM 60.1 °F 59.0 °F 96% 30.04 in 3.0 mi Calm Calm - N/A   Overcast
9:53 AM 62.1 °F 60.1 °F 93% 30.03 in 6.0 mi West 6.9 mph - N/A   Partly Cloudy
10:53 AM 63.0 °F 60.1 °F 90% 30.04 in 6.0 mi West 8.1 mph - N/A   Partly Cloudy
11:53 AM 71.1 °F 59.0 °F 66% 30.02 in 10.0 mi NW 9.2 mph - N/A   Clear
12:53 PM 75.0 °F 57.9 °F 55% 30.02 in 10.0 mi WNW 9.2 mph - N/A   Clear
1:53 PM 75.9 °F 57.0 °F 52% 30.01 in 10.0 mi West 13.8 mph - N/A   Clear
2:53 PM 73.9 °F 57.0 °F 55% 30.00 in 10.0 mi WNW 12.7 mph - N/A   Clear
3:53 PM 73.9 °F 57.0 °F 55% 29.98 in 10.0 mi NW 13.8 mph 21.9 mph N/A   Clear
4:53 PM 73.0 °F 57.0 °F 57% 29.97 in 10.0 mi WNW 16.1 mph - N/A   Clear
5:53 PM 72.0 °F 57.9 °F 61% 29.94 in 10.0 mi WNW 16.1 mph - N/A   Partly Cloudy
6:53 PM 68.0 °F 60.1 °F 76% 29.94 in 10.0 mi WNW 11.5 mph - N/A   Partly Cloudy
7:53 PM 64.0 °F 60.1 °F 87% 29.95 in 10.0 mi WNW 12.7 mph - N/A   Partly Cloudy
8:53 PM 63.0 °F 59.0 °F 87% 29.96 in 10.0 mi NNW 4.6 mph - N/A   Clear
9:53 PM 62.1 °F 60.1 °F 93% 29.98 in 10.0 mi WNW 10.4 mph - N/A   Clear
10:53 PM 60.1 °F 59.0 °F 96% 29.99 in 10.0 mi WNW 16.1 mph - N/A   Partly Cloudy
11:28 PM 59.0 °F 59.0 °F 100% 30.00 in 10.0 mi WNW 19.6 mph - N/A   Partly Cloudy
11:53 PM 59.0 °F 59.0 °F 100% 30.00 in 10.0 mi WNW 15.0 mph - N/A   Scattered Clouds
11:58 PM 59.0 °F 59.0 °F 100% 30.00 in 10.0 mi WNW 15.0 mph - N/A   Mostly Cloudy